{"data":{"norad_id":44450,"epoch":"2026-05-25T05:29:26.209248Z","epoch_age_seconds":48480,"freshness":"FRESH","line1":"1 44450U 19045B   26145.22877557  .00002289  00000+0  17066-3 0  9990","line2":"2 44450  34.9916 109.5470 0009351 236.3082 123.6734 15.02560898373204","mean_motion":15.02560898,"eccentricity":0.0009351,"inclination_deg":34.9916,"raan_deg":109.547,"arg_perigee_deg":236.3082,"mean_anomaly_deg":123.6734,"bstar":0.00017066,"rev_number":37320,"period_min":95.836381867565,"perigee_km":552.5159787979,"apogee_km":565.48981783573,"semimajor_km":6937.1398983168,"source":"CELESTRAK","updated_at":"2026-05-25T13:37:55.973505Z"}}